Torna al catalogo

STARLINK-34567

AttivoComunicazioniVLEO
NORAD 64795·PAYLOAD·🇺🇸 United States

Lanciato Jul 16, 2025 da Vandenberg Space Force Base

Loading…

Prossimi Passaggi (prossime 24 ore)

TLE

AggiornatoSource: CelesTrak SupGP

Epoca: Sep 14, 2026, 21:01 UTC

1 64795C 25150F   26257.87618056 -.00013059  00000+0 -10936-2 0  2574
2 64795  70.0029  17.2827 0003015 272.4077 288.6357 14.98366806    17

Traccia STARLINK-34567 in tempo reale con AllMySat

Download on the App Store